Starlink 32777

operational
NORAD ID: 62525 Int'l Des: 2025-004 Owner: SPXS Country: US Constellation: starlink
LEOCIRCULAR

Über Starlink 32777

Beschreibung wird geladen...

Live-Position

3D-Globus wird geladen...

Nächste Überflüge

Höhenverlauf

Altitude vs Time

uPlot chart will show altitude changes over time

Zweizeiliger Elementsatz

1 62525U 25004Q 26034.48641805 -.00011881 00000-0 -42268-3 0 9998
2 62525 43.0025 53.3829 0001141 273.7511 86.3210 15.27598963 61225
Epoch: 3. Feb. 2026 • Age: 25 hours

Aktueller Status

Höhe 492.2 km
Geschwindigkeit 7.62 km/s
Subsatellitenpunkt -34.18°S, 44.23°W
Startdatum 8. Jan. 2025
Alter 1 years
Typ internet

Technische Details

Klassifizierung Payload
Masse 730.00 kg
Trockenmasse 700.00 kg
Gesamtmasse 730.00 kg
Länge 0.30 m
Durchmesser 4.10 m
Spannweite 29.00 m
Form Box + pan
Hersteller SPXS
Bus-Typ Starlink V2M
Phasenstatus In Orbit
Besitzer/Staat SPXS/US

Große Konstellationen

Loading constellations...